Theta_e
328 328 330 331 332 337 342 343 345 344 341 344 348 345 342 346 349 346 344 343 342 344 344 343 343 342 342 343 345 345 343 346 347 348 344 349 349 343 348 351 352 346 349 348
325 327 330 332 333 335 343 345 346 345 342 339 344 345 348 350 349 348 345 345 344 346 345 344 343 342 341 342 342 343 344 346 349 350 347 344 344 348 349 351 350 352 352 348
323 326 331 330 331 334 333 343 344 343 340 340 340 346 348 348 345 347 348 346 346 346 347 347 346 346 342 342 342 342 345 345 349 348 346 348 350 354 352 351 351 353 348 344
324 326 328 329 331 332 330 335 343 345 340 342 339 343 346 340 339 344 343 348 348 347 348 348 348 348 346 345 345 344 342 345 345 345 348 351 351 353 351 349 350 347 353 349
324 325 325 327 328 330 330 333 339 343 341 339 340 340 341 341 348 347 342 348 348 348 348 349 348 348 349 348 349 350 348 343 346 346 350 351 350 350 348 347 338 349 351 350
325 328 326 327 326 327 330 332 334 333 333 338 336 338 341 341 341 344 341 346 349 348 348 349 349 349 349 350 350 351 351 351 347 345 351 354 352 352 350 349 347 349 350 348
323 324 323 327 327 327 331 329 329 332 333 333 332 335 336 333 338 343 341 344 347 349 348 348 349 349 348 349 351 351 351 352 352 350 346 354 351 354 353 347 338 344 351 347
322 322 323 328 327 326 327 325 327 334 335 335 334 335 335 334 337 338 339 341 341 350 349 349 348 348 349 349 350 351 351 352 352 350 347 347 352 350 350 349 347 351 351 347
323 324 325 326 327 325 324 327 325 326 328 330 335 338 335 333 340 341 343 344 341 345 348 349 349 349 348 349 349 349 350 350 350 350 348 347 347 350 348 347 350 353 353 347
324 323 325 324 327 326 324 326 327 325 329 333 333 339 338 340 343 339 343 343 345 347 349 349 348 349 348 348 348 348 348 348 349 349 345 343 344 345 346 350 355 355 353 348
327 323 325 325 326 324 323 323 325 324 324 330 340 341 341 340 341 336 336 342 345 345 346 349 348 349 349 348 347 347 347 348 348 348 347 343 344 345 345 348 355 353 353 350
325 321 322 325 325 325 325 324 325 327 330 326 332 337 338 337 338 336 339 340 333 342 346 347 349 349 350 349 348 348 346 347 348 349 349 348 345 344 346 351 351 352 354 349
326 322 324 328 323 326 326 325 324 323 326 334 336 339 336 338 338 342 339 338 340 344 345 347 348 348 348 351 350 350 349 349 350 350 346 341 349 347 347 347 346 348 352 349
327 324 327 329 332 326 326 326 327 326 326 331 332 340 337 337 340 345 345 345 345 355 351 349 349 348 349 349 354 354 351 351 351 352 352 349 345 349 348 347 351 348 350 352
324 332 333 333 333 333 333 328 328 328 330 333 343 345 340 338 345 346 348 351 359 360 360 361 360 362 360 354 351 351 356 355 353 353 354 355 354 354 354 354 355 355 355 355
325 334 332 333 332 333 333 328 328 329 336 346 346 347 338 335 335 344 352 354 353 353 355 354 351 354 359 359 359 356 355 353 360 360 358 356 357 356 357 356 356 355 356 355
325 331 333 334 333 334 330 332 334 331 340 343 346 343 340 339 337 342 344 349 348 348 347 346 345 348 351 356 358 357 355 353 355 357 357 358 358 358 358 357 357 356 355 354
326 328 331 339 336 338 337 336 339 343 343 341 341 343 340 336 336 344 346 347 347 346 345 345 344 345 346 348 351 354 356 357 356 358 358 358 359 359 359 358 356 356 356 357
324 327 331 340 338 340 340 338 337 338 342 342 343 337 337 337 341 345 345 346 345 344 344 344 344 348 347 353 358 359 359 359 359 358 358 359 359 360 360 360 357 356 355 357
330 328 334 338 342 345 340 337 339 337 345 340 337 335 334 335 342 343 344 343 343 343 343 341 342 347 349 349 347 354 361 360 359 359 358 359 357 354 358 355 353 355 354 353
336 339 337 340 342 340 338 339 339 344 348 342 337 337 336 340 342 344 343 343 343 340 339 338 339 343 344 343 351 351 357 356 355 356 359 361 359 359 357 356 349 352 352 352
343 343 343 347 347 347 339 337 346 347 344 346 341 337 338 342 343 342 342 341 341 340 338 338 337 343 343 345 354 354 351 348 344 343 348 356 360 358 358 357 352 350 349 352
341 339 342 344 345 337 340 339 341 340 343 343 343 342 343 342 342 341 341 340 339 337 337 338 338 339 340 340 340 342 342 340 333 332 336 336 344 355 357 357 359 358 354 352
335 339 341 341 339 335 340 341 340 339 339 339 339 342 340 341 341 341 340 339 338 337 337 337 337 337 338 337 338 339 339 339 345 342 334 335 336 342 346 354 357 357 356 354
341 341 338 343 343 339 342 341 340 340 340 339 340 340 340 339 340 340 340 340 339 338 338 338 339 339 338 337 337 336 334 332 344 351 349 341 338 340 341 345 350 351 352 352
336 339 342 343 337 340 338 338 338 337 338 339 340 340 340 340 340 340 340 340 339 339 339 339 337 337 339 338 336 333 336 343 348 350 347 347 340 339 337 337 345 349 348 348
Wind_Speed
18 5 5 12 13 15 20 12 10 3 10 12 20 9 5 10 15 19 29 31 30 27 26 25 25 24 27 25 26 24 23 19 18 13 14 17 10 10 8 3 4 6 5 4
6 10 10 12 17 16 13 15 9 5 8 20 11 5 16 22 30 34 30 32 31 29 29 28 27 26 31 29 27 25 23 21 21 15 12 11 11 6 12 8 5 2 6 5
9 9 16 17 15 14 8 15 7 11 19 12 4 3 17 21 18 17 26 40 38 36 35 34 31 31 33 31 28 22 28 25 20 17 13 13 8 5 5 8 4 5 6 5
9 17 15 14 11 8 7 6 21 10 6 4 7 3 6 9 7 8 23 35 39 40 36 39 35 33 36 33 29 23 27 28 26 22 17 16 17 13 12 11 12 11 10 6
11 10 10 10 7 9 10 10 16 7 9 1 14 3 6 10 4 20 23 38 40 43 42 42 40 37 34 34 31 25 22 22 23 23 20 17 16 15 10 12 12 12 9 7
8 20 6 5 10 7 6 8 4 4 5 0 3 5 5 10 16 25 22 30 40 41 43 42 41 37 36 34 33 29 25 18 20 23 26 21 19 16 12 8 11 12 11 9
9 10 10 7 2 7 1 3 3 5 3 5 6 7 5 16 8 17 17 27 34 43 43 40 41 41 39 37 35 32 28 23 19 20 26 26 21 19 17 13 6 9 10 10
7 6 10 4 5 6 7 8 6 7 4 1 5 6 6 18 10 14 9 16 12 38 39 41 37 40 40 39 37 34 30 25 20 18 21 27 28 21 19 17 15 12 6 8
5 8 5 7 6 8 10 5 11 2 5 4 3 1 6 7 8 16 24 24 31 20 36 38 30 31 38 36 37 35 31 26 21 18 19 22 26 30 24 19 16 13 12 11
9 7 7 11 8 9 8 6 2 3 1 1 4 2 5 9 5 9 16 20 12 18 32 33 30 27 35 33 33 34 29 26 22 18 19 22 23 25 28 24 21 20 16 12
4 2 8 7 6 8 3 5 5 4 5 5 4 5 5 14 10 12 14 16 9 12 7 31 30 29 29 35 32 34 32 29 26 22 20 23 24 24 24 25 22 21 16 15
7 2 2 11 11 9 6 9 7 5 6 4 6 4 6 11 12 22 24 30 32 30 12 11 27 26 28 35 34 31 33 31 27 23 21 23 25 23 23 27 24 22 21 20
4 4 3 7 6 3 4 8 7 5 3 1 6 3 4 13 17 22 35 40 37 10 11 16 17 15 12 16 31 30 31 30 28 25 21 23 22 23 23 26 27 25 25 24
4 2 6 5 7 6 4 9 8 4 3 3 5 11 19 18 18 25 24 34 29 23 23 20 14 8 6 8 10 19 30 29 28 25 20 22 23 23 25 26 27 27 26 26
4 2 1 2 5 6 5 6 10 6 4 4 14 14 11 20 26 34 4 20 23 22 22 19 15 13 9 1 4 4 8 20 26 23 24 24 22 21 23 25 25 24 26 24
2 2 2 6 12 15 16 9 10 6 15 16 22 11 4 37 38 45 16 20 21 17 14 14 13 12 12 9 1 3 5 12 14 18 25 29 28 28 28 25 24 25 27 26
4 5 3 4 9 14 5 5 7 4 9 14 6 9 13 15 32 31 16 10 13 12 11 10 11 9 9 10 6 4 4 7 15 20 20 21 24 26 29 28 28 27 29 29
5 3 6 6 3 2 4 14 17 18 13 19 20 17 19 24 36 23 9 6 15 12 9 7 5 2 7 8 9 11 7 5 7 13 18 20 21 24 25 28 29 28 29 31
9 4 1 4 4 4 10 8 13 4 3 14 18 15 26 21 7 3 11 19 15 10 8 6 7 5 7 9 8 10 12 11 7 6 11 16 23 24 23 25 26 27 28 31
2 4 5 3 6 3 12 24 23 5 3 15 18 17 18 16 4 5 24 20 15 12 8 6 3 4 2 5 6 4 7 8 10 11 9 9 16 20 24 21 22 24 28 30
3 3 1 3 7 4 3 12 17 7 4 9 35 28 22 5 7 13 19 18 17 10 8 4 2 1 2 4 4 2 2 2 7 9 9 12 15 17 21 28 24 27 28 27
4 5 4 4 5 2 5 10 7 2 8 19 20 32 27 20 25 21 15 15 12 10 6 4 5 5 2 2 3 4 5 7 12 14 13 13 16 19 19 19 22 26 27 29
4 2 3 3 5 5 2 6 10 11 15 11 12 11 17 21 24 21 18 14 11 12 10 11 9 5 2 4 8 10 14 17 18 17 16 15 17 19 20 20 19 21 26 29
6 27 4 4 4 9 2 9 10 11 12 13 9 6 6 10 19 19 13 14 18 11 10 7 4 4 5 10 13 14 15 17 23 24 21 20 18 15 18 20 20 23 25 27
4 4 4 7 7 5 19 17 14 14 11 11 13 12 8 4 6 7 7 11 11 11 9 8 9 10 15 14 17 21 25 25 25 28 27 25 21 20 19 19 19 21 25 27
8 4 4 3 15 15 16 16 14 13 12 10 9 11 12 15 14 13 9 2 7 7 7 7 9 12 12 16 23 24 23 19 22 28 27 26 24 21 19 19 20 20 22 24
Wind_Direction
243 219 198 248 258 264 159 179 167 242 247 264 198 253 273 334 259 217 180 182 187 189 184 183 187 190 188 189 193 191 191 208 206 193 190 181 173 172 223 255 214 300 278 280
253 228 235 248 259 268 162 144 208 200 330 326 166 160 179 190 230 197 179 180 185 188 186 181 185 193 188 190 196 195 192 200 205 209 209 191 163 207 243 262 269 296 265 283
206 236 222 236 255 268 260 166 153 197 190 248 335 173 173 215 231 173 198 182 186 190 187 182 186 195 191 194 199 203 191 202 207 216 195 164 187 212 215 200 218 295 309 266
216 234 245 235 239 247 282 275 177 191 97 239 125 309 207 194 245 57 254 185 189 188 190 185 185 192 196 199 200 197 197 202 210 217 198 191 206 213 213 228 242 242 259 296
244 240 245 253 247 209 241 285 176 147 132 139 291 127 236 125 118 192 233 183 190 187 189 187 186 190 201 202 202 197 200 207 206 208 197 199 209 218 225 225 243 232 227 266
244 279 279 234 277 287 289 330 326 324 163 105 298 101 323 183 190 215 218 190 189 186 188 190 194 190 197 206 203 201 201 208 212 206 200 202 213 216 216 208 208 214 238 252
295 259 277 203 231 313 319 349 334 325 334 220 80 59 147 272 189 191 204 206 180 184 184 188 190 194 193 202 204 203 205 207 211 217 206 204 209 221 228 236 296 238 223 248
215 265 241 204 188 219 227 188 172 223 226 264 4 164 227 231 160 128 65 157 138 184 181 183 191 197 195 199 204 207 206 210 213 217 216 208 214 212 224 236 232 231 237 265
229 249 221 180 157 183 265 232 228 262 292 37 160 198 339 360 58 74 67 55 20 351 175 175 181 197 192 197 203 212 209 212 216 222 223 215 211 218 220 227 232 242 240 248
259 306 258 191 156 215 177 248 320 332 286 296 326 33 198 116 82 79 82 71 346 3 163 174 179 191 196 200 204 211 215 210 214 217 219 218 213 213 220 224 222 228 238 244
226 181 290 103 164 200 265 286 271 164 144 141 148 271 205 145 168 118 101 101 93 286 175 182 183 191 201 200 201 208 211 212 211 219 226 222 217 212 211 212 217 227 232 232
212 210 334 201 206 185 202 213 218 127 276 184 139 260 150 122 135 125 125 129 161 205 252 185 197 194 196 199 199 208 211 213 215 220 231 231 222 217 211 213 221 225 230 231
175 281 323 313 52 222 193 262 231 228 111 156 121 239 102 60 144 156 154 161 172 205 213 145 136 132 114 179 201 210 216 220 219 219 219 220 217 219 218 217 225 224 228 231
97 272 155 178 234 238 230 256 257 222 88 260 183 77 9 11 28 354 111 154 177 82 91 99 104 115 122 89 126 199 221 228 225 220 222 219 218 224 227 224 226 227 226 228
115 63 95 278 289 257 289 228 269 275 252 111 94 85 43 33 20 339 308 109 99 91 87 83 75 73 56 63 263 240 173 213 223 226 226 227 224 228 236 237 231 228 228 232
194 213 108 11 47 319 270 215 243 248 99 86 89 79 164 85 69 312 315 94 92 91 93 97 81 75 66 65 107 276 257 219 199 205 219 227 228 230 228 233 235 229 230 227
195 141 103 241 265 264 18 320 337 253 57 133 111 172 174 133 173 240 289 107 108 103 97 103 72 93 69 56 62 14 337 257 233 229 229 226 224 229 232 230 233 235 232 229
192 187 155 198 70 35 308 9 62 74 92 103 120 156 184 174 199 186 244 192 123 114 104 91 70 63 41 37 20 13 360 333 261 245 243 240 236 235 231 233 235 235 234 229
176 191 23 116 89 318 3 342 344 63 144 146 143 162 175 175 113 282 218 160 138 119 105 71 52 85 112 76 47 26 7 359 350 304 257 248 242 236 239 241 245 240 232 227
282 189 125 153 95 82 267 300 330 355 73 172 153 165 151 132 134 251 149 141 145 147 146 111 80 81 63 19 349 5 1 330 326 318 319 305 261 245 246 244 252 243 236 234
345 15 70 27 73 44 264 291 313 56 275 107 155 157 157 171 185 193 148 151 145 135 139 156 104 28 17 340 303 344 196 309 324 319 308 294 286 277 262 265 250 230 232 237
5 357 33 40 103 176 305 15 57 312 45 74 144 175 185 168 146 155 158 144 150 157 165 180 154 125 138 99 166 215 269 292 293 286 281 279 282 286 288 277 249 237 235 238
360 232 149 106 185 248 241 184 79 57 45 51 53 88 145 159 157 155 155 152 164 157 142 137 138 120 55 338 325 305 298 296 294 291 282 280 273 273 279 276 268 248 237 234
323 233 162 134 245 228 241 92 88 62 30 24 12 163 132 104 163 159 172 185 169 171 176 185 207 236 282 295 290 292 292 294 287 286 289 283 276 273 271 265 261 251 248 245
160 52 134 72 8 197 69 72 58 40 48 19 26 37 80 141 91 137 147 155 164 176 192 225 251 264 300 302 299 300 298 292 280 277 281 287 271 271 268 264 246 249 255 260
55 300 100 115 45 75 39 39 43 38 23 20 25 16 20 31 26 21 31 108 189 204 230 250 273 279 270 285 302 307 306 298 274 273 278 280 267 264 267 271 261 251 253 257